Rochester/St. Mary\'s Hospita, MN

1:38 AM CDT on June 23, 2018 (GMT -0500)
Rochester/St. Mary\'s Hospita

Weather History for K9MN - October, 2017

Change the Weather History Date:

Tuesday, October 10, 2017

  Actual Average (KRST) Record (KRST)
Temperature  
Mean Temperature 42 °F -  
Max Temperature 47 °F 59 °F 85 °F (1930)
Min Temperature 38 °F 37 °F 22 °F (1987)
Degree Days  
Heating Degree Days 22    
Moisture  
Dew Point 35 °F    
Average Humidity 71    
Maximum Humidity 85    
Minimum Humidity 55    
Precipitation  
Precipitation 0.08 in - - ()
Sea Level Pressure  
Sea Level Pressure 30.26 in    
Wind  
Wind Speed 5 mph (North)    
Max Wind Speed 12 mph    
Max Gust Speed 21 mph    
Visibility 10 miles    
Events      
Averages and records for this station are not official NWS values.
T = Trace of Precipitation, MM = Missing Value Source: NWS Daily Summary

Daily Weather History Graph

Daily Weather History Graph

Search for Another Location

Airport or City:

Astronomy

Oct. 10, 2017 Rise Set
Actual Time 7:18 AM CDT 6:34 PM CDT
Civil Twilight 6:49 AM CDT 7:03 PM CDT
Nautical Twilight 6:16 AM CDT 7:36 PM CDT
Astronomical Twilight 5:42 AM CDT 8:09 PM CDT
Moon 10:31 PM CDT (10/10) 12:42 PM CDT (10/10)
Length of Visible Light 12h 13m
Length of Day
11h 15m
Waning Gibbous, 70% of the Moon is Illuminated
Oct 10
Waning Gibbous
Oct 12
Last Quarter
Oct 19
New
Oct 27
First Quarter
Nov 4
Full

Hourly Weather History & Observations

Time (CDT) Temp. Windchill Dew Point Humidity Pressure Visibility Wind Dir Wind Speed Gust Speed Precip Events Conditions
12:11 AM 43.7 °F 40.3 °F 35.6 °F 73% 30.24 in 10.0 mi WNW 5.8 mph - N/A   Scattered Clouds
12:32 AM 43.9 °F 41.3 °F 36.0 °F 74% 30.24 in 10.0 mi WNW 4.6 mph - N/A   Scattered Clouds
12:51 AM 43.9 °F 40.5 °F 36.0 °F 74% 30.25 in 10.0 mi NW 5.8 mph - N/A   Scattered Clouds
1:12 AM 44.1 °F 42.5 °F 36.1 °F 74% 30.26 in 10.0 mi NW 3.5 mph - N/A   Clear
1:32 AM 43.9 °F 42.3 °F 36.1 °F 74% 30.26 in 10.0 mi NW 3.5 mph - N/A   Clear
1:51 AM 43.5 °F 40.9 °F 36.0 °F 75% 30.27 in 10.0 mi WNW 4.6 mph - N/A   Clear
2:12 AM 43.2 °F 41.5 °F 34.9 °F 73% 30.27 in 10.0 mi NW 3.5 mph - N/A   Clear
2:32 AM 43.0 °F 39.5 °F 34.2 °F 71% 30.27 in 10.0 mi WNW 5.8 mph - N/A   Clear
2:51 AM 42.3 °F 37.9 °F 33.8 °F 72% 30.27 in 10.0 mi NW 6.9 mph - N/A   Clear
3:12 AM 41.5 °F 37.1 °F 33.8 °F 74% 30.26 in 10.0 mi NW 6.9 mph - N/A   Clear
3:32 AM 40.8 °F 36.9 °F 33.8 °F 76% 30.25 in 10.0 mi NNW 5.8 mph - N/A   Clear
3:51 AM 40.1 °F 38.0 °F 33.4 °F 77% 30.26 in 10.0 mi North 3.5 mph - N/A   Clear
4:12 AM 40.3 °F 37.1 °F 32.5 °F 74% 30.27 in 10.0 mi North 4.6 mph - N/A   Clear
4:31 AM 40.3 °F 37.1 °F 32.5 °F 74% 30.27 in 10.0 mi NNW 4.6 mph - N/A   Clear
4:52 AM 39.6 °F 34.0 °F 32.2 °F 75% 30.25 in 10.0 mi North 8.1 mph - N/A   Clear
5:12 AM 39.6 °F 33.5 °F 32.0 °F 74% 30.26 in 10.0 mi NNE 9.2 mph - N/A   Clear
5:31 AM 39.4 °F 36.1 °F 32.0 °F 75% 30.26 in 10.0 mi North 4.6 mph - N/A   Clear
5:52 AM 39.2 °F 33.0 °F 31.8 °F 75% 30.26 in 10.0 mi North 9.2 mph - N/A   Clear
6:12 AM 39.4 °F 35.2 °F 31.8 °F 74% 30.28 in 10.0 mi North 5.8 mph - N/A   Clear
6:31 AM 39.2 °F 35.0 °F 31.8 °F 75% 30.29 in 10.0 mi North 5.8 mph - N/A   Clear
6:52 AM 39.2 °F 35.9 °F 32.0 °F 75% 30.29 in 10.0 mi NNE 4.6 mph - N/A   Clear
7:12 AM 38.5 °F 36.1 °F 32.0 °F 78% 30.28 in 10.0 mi North 3.5 mph - N/A   Clear
7:31 AM 38.5 °F 36.1 °F 32.0 °F 78% 30.30 in 10.0 mi North 3.5 mph - N/A   Clear
7:52 AM 39.0 °F - 32.0 °F 76% 30.31 in 10.0 mi Calm Calm - N/A   Clear
8:12 AM 39.4 °F - 32.0 °F 75% 30.31 in 10.0 mi Calm Calm - N/A   Clear
8:32 AM 39.2 °F - 32.0 °F 75% 30.32 in 10.0 mi Calm Calm - N/A   Clear
8:52 AM 39.7 °F - 32.2 °F 74% 30.33 in 10.0 mi Calm Calm - N/A   Clear
9:11 AM 40.5 °F 37.3 °F 32.2 °F 72% 30.32 in 10.0 mi NNW 4.6 mph - N/A   Clear
9:32 AM 41.4 °F 37.6 °F 32.0 °F 69% 30.31 in 10.0 mi North 5.8 mph - N/A   Clear
9:52 AM 42.8 °F 38.0 °F 32.0 °F 66% 30.30 in 10.0 mi NNE 8.1 mph - N/A   Clear
10:11 AM 43.7 °F 37.7 °F 31.6 °F 63% 30.29 in 10.0 mi NNE 11.5 mph 17.3 mph N/A   Clear
10:32 AM 44.2 °F 38.8 °F 31.1 °F 60% 30.28 in 10.0 mi NNE 10.4 mph 20.7 mph N/A   Scattered Clouds
10:52 AM 45.5 °F 40.8 °F 30.6 °F 56% 30.29 in 10.0 mi NNE 9.2 mph 18.4 mph N/A   Mostly Cloudy
11:11 AM 46.4 °F 41.9 °F 30.9 °F 55% 30.30 in 10.0 mi NE 9.2 mph 19.6 mph N/A   Mostly Cloudy
11:32 AM 46.6 °F - 31.5 °F 56% 30.31 in 10.0 mi NE 4.6 mph - N/A   Mostly Cloudy
11:52 AM 46.4 °F 41.5 °F 31.6 °F 56% 30.31 in 10.0 mi NNE 10.4 mph - N/A   Mostly Cloudy
12:11 PM 46.6 °F - 32.0 °F 57% 30.31 in 10.0 mi NNE 5.8 mph 16.1 mph N/A   Overcast
12:32 PM 47.3 °F - 32.0 °F 55% 30.28 in 10.0 mi North 9.2 mph 17.3 mph N/A   Mostly Cloudy
12:51 PM 47.3 °F - 32.0 °F 55% 30.29 in 10.0 mi North 8.1 mph 17.3 mph N/A   Scattered Clouds
1:12 PM 46.9 °F - 32.0 °F 56% 30.27 in 10.0 mi North 11.5 mph - N/A   Scattered Clouds
1:32 PM 47.3 °F - 32.0 °F 55% 30.27 in 10.0 mi North 9.2 mph - N/A   Mostly Cloudy
1:51 PM 47.3 °F - 32.0 °F 55% 30.26 in 10.0 mi North 9.2 mph - N/A   Overcast
2:12 PM 47.7 °F - 32.0 °F 55% 30.26 in 10.0 mi North 8.1 mph - N/A   Overcast
2:32 PM 47.7 °F - 32.0 °F 55% 30.27 in 10.0 mi NNE 4.6 mph - N/A   Overcast
2:51 PM 47.5 °F - 32.0 °F 55% 30.26 in 10.0 mi North 6.9 mph - N/A   Overcast
3:12 PM 47.3 °F - 32.0 °F 55% 30.27 in 10.0 mi NNW 4.6 mph - N/A   Overcast
3:32 PM 47.5 °F - 32.0 °F 55% 30.27 in 10.0 mi Calm Calm - N/A   Overcast
3:51 PM 47.3 °F - 32.5 °F 57% 30.25 in 10.0 mi North 5.8 mph - N/A   Overcast
4:12 PM 46.6 °F - 34.2 °F 62% 30.24 in 10.0 mi NNW 5.8 mph - N/A   Overcast
4:32 PM 46.4 °F 43.5 °F 34.7 °F 64% 30.25 in 10.0 mi NNE 5.8 mph - N/A   Overcast
4:51 PM 45.9 °F 42.9 °F 35.8 °F 68% 30.24 in 10.0 mi NNE 5.8 mph - N/A   Overcast
5:12 PM 45.9 °F 42.9 °F 36.1 °F 69% 30.25 in 10.0 mi NNE 5.8 mph - N/A   Overcast
5:32 PM 45.5 °F 43.2 °F 36.9 °F 72% 30.24 in 10.0 mi North 4.6 mph - N/A   Overcast
5:51 PM 45.5 °F 44.2 °F 37.6 °F 74% 30.24 in 10.0 mi North 3.5 mph - 0.02 in   Overcast
6:12 PM 44.8 °F 42.4 °F 37.6 °F 76% 30.24 in 10.0 mi NNE 4.6 mph - 0.02 in   Overcast
6:32 PM 44.6 °F 43.1 °F 38.3 °F 79% 30.24 in 7.0 mi NNE 3.5 mph - 0.05 in   Overcast
6:51 PM 44.6 °F - 38.8 °F 80% 30.22 in 10.0 mi Calm Calm - 0.05 in   Overcast
7:12 PM 44.6 °F - 39.6 °F 82% 30.24 in 10.0 mi Calm Calm - N/A   Overcast
7:32 PM 44.6 °F - 39.7 °F 83% 30.24 in 10.0 mi Calm Calm - N/A   Overcast
7:51 PM 44.2 °F - 39.7 °F 84% 30.24 in 10.0 mi Calm Calm - N/A   Overcast
8:12 PM 44.6 °F - 40.3 °F 85% 30.23 in 10.0 mi Calm Calm - 0.01 in   Overcast
8:32 PM 44.6 °F - 40.1 °F 84% 30.22 in 10.0 mi Calm Calm - 0.01 in   Overcast
8:51 PM 44.6 °F - 39.7 °F 83% 30.22 in 10.0 mi Calm Calm - 0.01 in   Overcast
9:12 PM 44.8 °F - 39.7 °F 82% 30.22 in 10.0 mi Calm Calm - N/A   Overcast
9:32 PM 45.5 °F - 41.0 °F 84% 30.24 in 10.0 mi Calm Calm - N/A   Overcast
9:51 PM 44.6 °F 41.4 °F 40.1 °F 84% 30.22 in 10.0 mi West 5.8 mph - N/A   Overcast
10:12 PM 44.4 °F 42.0 °F 39.4 °F 82% 30.22 in 10.0 mi WNW 4.6 mph - N/A   Overcast
10:32 PM 45.0 °F 43.5 °F 40.1 °F 83% 30.23 in 10.0 mi West 3.5 mph - N/A   Overcast
10:52 PM 44.8 °F 42.4 °F 39.9 °F 83% 30.22 in 10.0 mi WNW 4.6 mph - N/A   Overcast
11:12 PM 44.8 °F 41.0 °F 40.5 °F 85% 30.22 in 10.0 mi West 6.9 mph - N/A   Overcast
11:32 PM 44.6 °F 42.2 °F 39.7 °F 83% 30.22 in 10.0 mi WNW 4.6 mph - N/A   Overcast
11:52 PM 44.8 °F - 39.6 °F 82% 30.22 in 10.0 mi Calm Calm - N/A   Overcast